This is the latest recevied weather packets stored in our database for station/object YO2MAS-13. If no packets are shown the sender has not sent any weather packets the latest 10 day(s).
| Time | Temp. | Humidity | Pressure | Rain* | Wind** | Luminosity | Snow |
|---|---|---|---|---|---|---|---|
| 1777505420 | 10° C | 55% | 1026.1 hPa | - | - | - | - |
| 1777504520 | 10° C | 53% | 1026.1 hPa | - | - | - | - |
| 1777503620 | 9.44° C | 52% | 1026.1 hPa | - | - | - | - |
| 1777502720 | 11.11° C | 51% | 1026.1 hPa | - | - | - | - |
| 1777501859 | 10.56° C | 48% | 1026 hPa | - | - | - | - |
| 1777501820 | 10.56° C | 48% | 1026 hPa | - | - | - | - |
| 1777500920 | 10.56° C | 50% | 1025.9 hPa | - | - | - | - |
| 1777500020 | 11.11° C | 51% | 1025.9 hPa | - | - | - | - |
| 1777499457 | 11.11° C | 49% | 1025.9 hPa | - | - | - | - |
| 1777499120 | 11.11° C | 49% | 1025.9 hPa | - | - | - | - |
| 1777498222 | 11.67° C | 50% | 1025.7 hPa | - | - | - | - |
| 1777497320 | 11.67° C | 49% | 1025.6 hPa | - | - | - | - |
| 1777496420 | 12.22° C | 47% | 1025.3 hPa | - | - | - | - |
| 1777495520 | 12.78° C | 48% | 1025.2 hPa | - | - | - | - |
| 1777494620 | 12.78° C | 47% | 1025 hPa | - | - | - | - |
| 1777493720 | 13.33° C | 47% | 1024.8 hPa | - | - | - | - |
| 1777492894 | 12.78° C | 43% | 1024.6 hPa | - | - | - | - |
| 1777492820 | 12.78° C | 44% | 1024.7 hPa | - | - | - | - |
| 1777491920 | 12.78° C | 43% | 1024.6 hPa | - | - | - | - |
| 1777491020 | 12.78° C | 41% | 1024.3 hPa | - | - | - | - |
| 1777490120 | 13.33° C | 42% | 1024.3 hPa | - | - | - | - |
| 1777489220 | 13.89° C | 40% | 1023.9 hPa | - | - | - | - |
| 1777488320 | 13.89° C | 41% | 1023.9 hPa | - | - | - | - |
| 1777487420 | 13.89° C | 44% | 1023.8 hPa | - | - | - | - |
| 1777487115 | 14.44° C | 42% | 1023.5 hPa | - | - | - | - |
* Rain since midnight (hover to see other rain measurements)
** Current wind speed in m/s (hover to see current wind gust speed)